Date,TemperatureHighF,TemperatureAvgF,TemperatureLowF,DewpointHighF,DewpointAvgF,DewpointLowF,HumidityHigh,HumidityAvg,HumidityLow,PressureMaxIn,PressureMinIn,WindSpeedMaxMPH,WindSpeedAvgMPH,GustSpeedMaxMPH,PrecipitationSumIn
2013-1-1,18.6,4.7,-6.8,14.9,-1.5,-13.1,86,75,61,30.30,30.07,11,0,11,0.00
2013-1-2,18.6,14.4,11.7,14.9,10.5,8.1,88,84,80,30.08,29.97,10,0,10,0.00
2013-1-3,19.4,14.1,9.0,16.5,8.7,2.3,89,79,66,30.25,30.07,14,0,14,0.00
2013-1-4,29.0,20.6,12.4,17.4,13.5,8.2,84,74,59,30.14,30.01,16,1,16,0.00
2013-1-5,25.7,16.9,9.0,15.0,10.9,4.9,87,78,61,30.09,29.85,11,0,11,0.00
2013-1-6,24.2,16.6,11.4,15.6,9.7,5.9,87,75,53,30.22,30.00,10,0,10,0.00
2013-1-7,35.6,27.0,14.1,25.0,20.2,9.6,86,75,62,30.05,29.89,22,2,22,0.00
2013-1-8,32.5,25.8,15.1,27.9,21.5,11.9,91,84,73,29.97,29.76,15,2,15,0.00
2013-1-9,34.0,29.2,23.6,25.8,21.5,17.8,86,73,58,30.34,29.89,22,2,22,0.00
2013-1-10,38.5,31.8,24.7,32.7,24.0,19.1,97,74,48,30.31,29.73,15,2,15,0.00
2013-1-11,39.2,35.9,33.5,38.9,35.5,32.7,99,99,97,29.73,29.33,14,2,14,0.00
2013-1-12,38.2,16.5,5.2,37.9,10.3,-2.0,99,76,63,30.06,29.34,19,2,19,0.00
2013-1-13,9.5,5.4,2.8,2.0,-1.1,-3.6,78,74,69,30.27,30.05,9,0,9,0.00
2013-1-14,13.6,7.5,2.2,2.9,0.5,-3.1,82,73,59,30.43,30.27,9,0,9,0.00
2013-1-15,28.8,18.7,7.9,16.9,11.1,2.8,84,73,53,30.32,29.84,19,1,19,0.00
2013-1-16,35.0,25.5,12.8,30.9,17.4,-2.1,94,72,48,30.20,29.65,17,2,17,0.00
2013-1-17,18.1,12.2,6.1,8.4,1.3,-5.8,76,61,48,30.39,30.21,15,0,15,0.00
2013-1-18,41.6,28.2,14.9,29.6,21.8,8.4,86,77,60,30.32,29.73,16,1,16,0.00
2013-1-19,37.8,23.6,2.2,29.4,17.0,-6.5,93,76,54,30.18,29.64,26,3,26,0.00
2013-1-20,9.0,2.9,-2.2,-1.2,-6.7,-12.6,73,64,50,30.42,30.18,17,1,17,0.00
2013-1-21,-2.2,-6.0,-10.7,-12.4,-16.5,-22.0,68,59,51,30.39,30.29,23,1,23,0.00
2013-1-22,4.1,-3.8,-11.7,-4.9,-14.1,-20.4,66,60,51,30.46,30.30,9,0,9,0.00
2013-1-23,16.4,6.4,-5.2,6.9,-4.0,-17.7,81,62,44,30.62,30.19,28,2,28,0.00
2013-1-24,10.5,0.8,-6.8,1.0,-10.4,-18.7,65,58,53,30.71,30.22,17,1,17,0.00
2013-1-25,19.2,12.9,4.1,9.7,3.8,-4.4,81,67,55,30.30,29.96,22,2,22,0.00
2013-1-26,22.1,11.7,0.3,10.7,2.2,-6.4,76,65,53,30.38,30.15,14,1,15,0.00
2013-1-27,31.0,28.0,21.9,29.4,21.4,10.5,96,77,60,30.15,29.79,17,2,17,0.00
2013-1-28,33.1,30.7,29.4,32.1,29.8,28.4,98,97,94,29.88,29.61,14,1,14,0.00
2013-1-29,34.4,31.4,27.5,33.9,29.5,21.6,98,93,79,29.71,29.48,20,1,20,0.00
2013-1-30,27.5,17.5,9.3,21.7,10.4,1.4,80,73,65,29.73,29.60,23,3,23,0.00
2013-1-31,9.2,2.0,-7.5,1.4,-6.6,-16.7,75,66,61,30.29,29.73,21,2,21,0.00
2013-2-1,3.5,-3.6,-12.2,-1.8,-12.8,-20.0,79,64,44,30.36,30.10,12,1,12,0.00
2013-2-2,11.1,5.5,0.1,3.8,-2.0,-6.7,81,71,53,30.22,29.99,9,0,9,0.00
2013-2-3,15.9,10.2,2.8,7.1,3.1,-3.1,83,73,57,30.11,29.98,17,0,17,0.00
2013-2-4,16.4,9.9,3.0,6.5,1.3,-3.7,82,68,50,30.08,29.78,11,0,11,0.00
2013-2-5,29.8,20.4,8.1,23.7,14.5,3.5,93,78,56,30.09,29.66,15,1,15,0.00
2013-2-6,23.5,14.4,2.8,18.0,10.0,-2.4,87,82,76,30.11,29.95,14,2,14,0.00
2013-2-7,26.1,24.9,20.5,22.9,20.8,17.3,91,84,76,30.24,29.99,14,1,14,0.00
2013-2-8,25.8,21.0,13.6,19.5,13.0,8.2,84,71,55,30.38,30.23,10,1,10,0.00
2013-2-9,30.9,27.1,21.9,26.2,23.2,17.5,91,85,80,30.23,29.93,20,3,20,0.00
2013-2-10,33.1,30.0,27.0,32.4,28.2,23.1,98,93,85,29.93,29.24,21,4,21,0.00
2013-2-11,31.3,24.8,18.4,30.8,21.1,12.7,98,86,75,30.02,29.28,19,2,19,0.00
2013-2-12,35.2,23.8,13.6,24.4,17.3,9.4,86,77,61,30.02,29.79,17,1,17,0.00
2013-2-13,39.6,28.2,18.4,31.2,23.1,14.9,96,82,58,29.79,29.54,12,0,12,0.00
2013-2-14,33.2,25.8,13.5,31.1,20.1,3.4,96,80,52,30.15,29.54,19,1,19,0.00
2013-2-15,19.5,11.3,5.2,4.7,1.2,-2.1,74,64,47,30.30,30.15,16,1,16,0.00
2013-2-16,17.7,7.7,-1.6,5.8,-0.1,-7.3,80,70,55,30.26,30.14,7,0,7,0.00
2013-2-17,30.3,19.4,3.2,19.3,10.9,-2.6,78,69,58,30.14,29.64,21,4,21,0.00
2013-2-18,33.1,23.8,9.7,29.2,17.7,2.3,86,77,70,29.76,29.52,21,2,21,0.00
2013-2-19,11.1,5.6,0.1,2.6,-5.0,-9.8,77,61,51,30.37,29.76,25,3,25,0.00
2013-2-20,18.0,6.2,-3.9,3.6,-3.9,-11.3,72,63,49,30.49,30.37,10,0,10,0.00
2013-2-21,22.2,13.0,2.2,10.8,4.0,-4.0,77,67,56,30.47,30.10,19,2,19,0.00
2013-2-22,31.5,23.1,19.1,22.7,18.1,10.6,88,81,66,30.10,29.85,20,1,20,0.00
2013-2-23,31.5,24.0,18.6,23.1,19.2,15.4,90,82,68,29.95,29.82,7,0,7,0.00
2013-2-24,35.0,22.6,10.2,21.7,15.5,6.3,88,75,55,30.10,29.95,10,0,10,0.00
2013-2-25,33.4,26.7,20.6,26.0,21.5,18.0,91,81,69,30.10,30.02,7,0,7,0.00
2013-2-26,40.5,28.2,18.4,28.2,22.3,16.0,91,79,59,30.04,29.85,14,0,14,0.00
2013-2-27,38.0,31.0,26.1,26.5,23.7,20.4,82,75,60,29.99,29.82,20,2,20,0.00
2013-2-28,30.9,27.4,22.7,21.8,19.3,14.5,79,71,65,30.20,29.98,16,1,16,0.00
2013-3-1,34.4,25.3,19.5,19.3,15.0,11.2,74,65,50,30.33,30.20,15,1,15,0.00
2013-3-2,23.9,15.7,8.6,12.1,8.7,4.8,84,74,57,30.35,30.33,9,1,9,0.00
2013-3-4,24.1,23.7,23.5,21.4,19.7,17.8,91,84,79,30.03,29.97,13,4,13,0.00
2013-3-5,31.8,25.2,19.2,25.0,21.3,13.8,92,85,74,30.29,29.96,14,2,14,0.00
2013-3-6,31.2,21.7,13.5,18.4,14.8,9.8,86,75,57,30.40,30.28,14,1,14,0.00
2013-3-7,32.4,19.7,7.7,18.1,11.9,4.2,86,72,53,30.40,30.30,13,1,13,0.00
2013-3-8,39.9,29.5,18.8,28.3,22.1,14.3,86,74,60,30.33,30.07,18,2,18,0.00
2013-3-9,35.8,34.1,32.1,35.0,32.5,26.1,98,94,73,30.07,29.67,22,2,22,0.00
2013-3-10,34.6,32.6,29.7,33.6,29.5,25.2,98,89,79,29.91,29.73,20,2,20,0.00
2013-3-11,30.1,27.7,23.0,25.7,21.9,16.5,87,79,68,29.82,29.70,18,2,18,0.00
2013-3-12,29.1,24.1,18.8,17.4,14.3,9.3,83,66,48,30.16,29.80,24,2,24,0.00
2013-3-13,35.9,22.9,12.6,17.4,11.6,8.4,83,63,34,30.37,30.16,9,0,9,0.00
2013-3-14,38.9,29.0,21.9,26.6,22.1,14.9,90,76,60,30.26,30.00,15,1,15,0.00
2013-3-15,33.7,30.3,24.7,30.3,26.8,21.7,94,87,81,30.00,29.81,14,1,14,0.00
2013-3-16,29.1,21.6,13.6,21.7,12.8,3.6,89,69,51,30.23,29.86,13,1,13,0.00
2013-3-17,28.1,17.3,4.8,18.3,5.2,-3.7,74,59,45,30.26,29.91,17,3,17,0.00
2013-3-18,27.9,21.5,12.1,26.1,15.8,4.8,93,78,66,29.91,29.60,22,4,22,0.00
2013-3-19,24.5,13.4,6.3,7.6,1.6,-4.8,73,59,44,30.18,29.78,21,3,21,0.00
2013-3-20,23.5,12.7,4.3,5.3,-0.8,-5.5,63,54,43,30.21,30.11,16,2,16,0.00
2013-3-21,31.3,16.3,1.8,10.9,3.5,-4.3,78,58,37,30.14,30.05,9,0,9,0.00
2013-3-22,37.9,22.8,8.1,16.0,10.4,2.3,79,61,34,30.09,30.04,7,0,7,0.00
2013-3-23,38.6,28.2,16.7,21.5,16.2,11.0,83,61,41,30.15,30.05,6,0,6,0.00
2013-3-24,32.5,29.3,26.6,22.9,20.6,18.0,75,70,62,30.09,29.95,13,1,18,0.00
2013-3-25,41.1,29.9,20.8,21.9,17.3,12.9,74,60,39,30.19,30.00,18,2,18,0.00
2013-3-26,42.5,32.0,26.6,23.7,20.7,17.7,73,63,42,30.27,30.18,10,0,10,0.00
2013-3-27,44.1,32.9,23.9,21.1,18.6,15.0,82,58,33,30.32,30.27,11,0,11,0.00
2013-3-28,45.4,32.7,22.7,22.6,19.3,16.6,79,59,35,30.34,30.26,11,1,11,0.00
2013-3-29,47.6,37.0,28.5,32.5,26.5,20.0,77,66,48,30.27,30.06,16,1,16,0.00
2013-3-30,53.6,41.5,34.7,42.3,35.6,30.7,98,80,57,30.06,29.80,15,1,15,0.00
2013-3-31,40.1,33.6,24.1,30.9,23.4,12.7,93,68,33,30.04,29.75,27,3,27,0.00
2013-4-1,35.3,25.4,16.9,16.7,13.1,9.5,73,60,40,30.25,30.04,18,1,18,0.00
2013-4-2,39.5,27.6,18.0,17.4,13.5,9.6,78,57,30,30.34,30.23,14,0,14,0.00
2013-4-3,43.2,32.3,20.8,29.5,19.5,12.2,79,60,40,30.40,30.06,22,2,22,0.00
2013-4-4,51.7,41.7,32.4,33.0,27.1,21.3,77,57,35,30.12,29.97,18,2,19,0.00
2013-4-5,43.3,33.2,25.6,31.4,22.8,15.4,93,68,37,30.21,29.88,17,3,17,0.00
2013-4-6,51.0,40.0,34.1,40.3,32.7,25.8,94,76,55,29.88,29.47,22,4,22,0.00
2013-4-7,47.0,39.0,33.8,36.5,32.6,29.6,92,78,62,29.92,29.70,13,1,13,0.00
2013-4-8,45.2,40.6,37.5,40.9,38.5,35.9,97,92,83,30.00,29.64,14,1,14,0.00
2013-4-9,41.3,37.0,32.1,38.2,33.0,27.0,97,86,67,30.13,29.93,25,2,25,0.26
2013-4-10,36.6,33.1,28.5,28.1,26.2,22.9,94,76,62,30.16,29.88,24,4,24,0.20
2013-4-11,34.3,32.2,29.8,31.9,29.1,22.7,95,89,64,29.88,29.65,27,4,27,0.03
2013-4-12,36.2,31.0,27.2,30.1,27.3,24.3,95,86,71,29.81,29.63,15,0,15,0.03
2013-4-13,36.9,31.6,27.2,27.2,25.1,22.5,94,77,59,29.95,29.80,13,0,13,0.00
2013-4-14,35.5,31.0,28.1,34.7,27.3,21.8,97,86,72,29.93,29.47,28,6,28,0.00
2013-4-15,38.2,34.4,30.7,34.2,28.1,23.4,97,78,66,29.94,29.52,24,3,24,0.00
2013-4-16,48.3,37.7,31.8,30.2,27.1,25.1,85,67,45,30.29,29.94,12,1,12,0.00
2013-4-17,39.2,35.4,32.7,34.9,29.8,25.5,96,80,72,30.29,29.86,23,4,23,0.00
2013-4-18,33.7,32.1,30.4,32.7,31.3,29.7,97,97,96,29.88,29.44,18,1,18,0.00
2013-4-19,36.8,31.3,26.0,30.0,26.8,18.8,97,84,60,29.95,29.42,25,2,25,0.00
2013-4-20,42.3,31.0,18.8,20.7,14.7,8.3,77,53,28,30.29,29.96,9,0,9,0.00
2013-4-21,48.6,38.7,30.7,45.2,34.1,17.7,98,84,57,30.29,30.01,28,3,28,0.00
2013-4-22,42.6,36.3,31.6,38.1,33.7,30.8,97,91,70,30.18,30.06,11,1,16,0.00
2013-4-23,43.2,36.4,29.5,33.0,26.3,18.8,96,68,44,30.12,30.03,15,1,15,0.00
2013-4-24,50.1,36.5,25.8,33.2,27.2,21.3,91,71,39,30.04,29.87,19,1,19,0.00
2013-4-25,51.7,40.9,32.5,32.8,29.0,24.4,91,65,37,30.17,29.94,15,1,15,0.00
2013-4-26,73.3,56.6,41.5,46.1,37.3,27.3,75,51,30,30.07,29.95,23,2,23,0.00
2013-4-27,75.1,59.1,43.2,48.7,41.0,33.7,73,54,27,30.07,29.85,18,1,18,0.00
2013-4-28,79.6,61.8,48.9,56.5,47.5,43.0,91,63,32,29.85,29.58,26,3,26,0.08
2013-4-29,75.8,61.2,47.0,55.9,48.6,38.6,96,67,32,29.75,29.50,16,1,16,0.00
2013-4-30,71.3,64.1,56.6,58.0,46.0,27.3,82,55,27,29.89,29.36,19,2,19,0.00
2013-5-1,56.5,39.9,33.8,41.6,35.7,31.9,99,87,45,30.45,29.89,17,1,17,0.43
2013-5-2,43.3,36.2,32.2,35.0,31.8,28.0,98,85,58,30.52,30.39,15,1,15,0.32
2013-5-3,36.8,33.6,31.2,33.1,30.5,27.0,96,88,74,30.39,30.13,16,1,16,0.21
2013-5-4,54.7,40.6,32.2,45.1,37.3,31.2,99,89,67,30.14,30.08,13,0,13,0.10
2013-5-5,68.3,50.6,37.5,48.2,41.1,34.6,90,72,45,30.13,30.02,10,0,10,0.00
2013-5-6,78.5,60.5,44.2,51.7,44.6,40.3,87,60,29,30.05,29.95,7,0,7,0.00
2013-5-7,79.4,65.3,50.1,50.6,45.1,37.1,85,52,23,30.00,29.89,17,0,17,0.00
2013-5-8,77.2,63.4,53.5,57.8,50.4,43.8,96,66,33,29.93,29.87,14,0,14,0.11
2013-5-9,57.2,51.8,42.2,56.1,48.4,30.8,96,88,63,30.03,29.87,18,1,18,0.20
2013-5-10,67.8,51.4,36.2,38.0,29.7,22.5,76,47,19,30.06,29.83,11,0,11,0.00
2013-5-11,54.7,46.4,38.8,43.4,27.6,17.2,74,49,25,30.12,29.82,30,4,30,0.00
2013-5-12,60.1,45.5,31.6,27.5,22.3,17.4,72,43,20,30.18,30.05,17,1,17,0.00
2013-5-13,68.3,53.3,35.5,46.1,32.5,17.5,68,46,26,30.08,29.60,27,2,27,0.02
2013-5-14,96.3,72.2,52.8,54.5,46.4,32.5,78,45,18,29.64,29.37,27,2,27,0.00
2013-5-15,79.0,66.1,53.2,51.0,45.9,41.6,72,50,28,29.84,29.57,23,1,23,0.00
2013-5-16,84.0,69.4,54.5,52.7,44.7,31.5,75,44,24,29.85,29.76,22,2,22,0.00
2013-5-17,65.3,57.1,54.2,54.6,49.6,32.1,96,78,29,29.94,29.83,18,5,18,0.12
2013-5-18,79.4,62.9,53.1,66.2,58.0,51.3,99,85,59,29.96,29.73,19,1,19,0.55
2013-5-19,81.4,68.2,62.9,67.9,62.9,60.1,99,84,59,29.75,29.49,23,2,23,1.00
2013-5-20,70.3,64.2,58.9,65.6,60.2,56.1,99,88,70,29.52,29.43,19,2,19,0.43
2013-5-21,66.8,58.2,50.5,61.1,56.4,49.4,99,94,77,29.64,29.46,11,1,11,0.12
2013-5-22,52.5,49.9,46.7,50.3,48.0,43.7,98,93,75,29.93,29.63,19,0,19,0.03
2013-5-23,66.8,53.5,42.9,44.1,37.3,28.8,83,57,29,30.30,29.93,16,1,16,0.00
2013-5-24,68.4,54.4,38.6,50.8,39.0,28.7,91,58,36,30.35,30.14,15,1,15,0.13
2013-5-25,61.3,56.0,50.8,50.9,47.7,43.0,96,75,53,30.21,30.18,21,2,21,0.14
2013-5-26,58.1,54.5,49.6,47.3,42.7,35.2,79,65,45,30.19,29.99,20,3,20,0.00
2013-5-27,58.9,55.5,53.3,54.8,50.1,45.8,96,82,70,30.00,29.78,20,5,20,0.07
2013-5-28,57.3,54.7,51.9,56.2,53.6,50.8,98,96,93,29.78,29.67,14,2,14,0.03
2013-5-29,72.8,63.1,54.5,70.1,60.8,53.9,99,92,76,29.78,29.59,21,1,21,0.25
2013-5-30,77.0,69.7,64.3,65.1,62.7,60.9,97,79,64,29.56,29.45,22,2,22,0.13
2013-5-31,78.1,66.6,60.1,62.8,58.7,50.7,97,78,43,29.50,29.43,29,2,29,0.17
2013-6-1,72.0,60.0,50.5,59.2,53.1,42.5,94,79,57,29.86,29.48,18,1,18,0.00
2013-6-2,68.3,56.0,47.0,45.9,41.6,37.1,81,60,35,30.02,29.86,14,0,14,0.00
2013-6-3,69.6,59.2,47.4,49.7,45.0,40.3,87,62,35,30.02,29.89,12,0,12,0.00
2013-6-4,61.8,58.0,54.4,51.8,48.7,42.5,91,72,59,30.03,29.95,19,2,19,0.00
2013-6-5,56.6,54.6,53.2,55.9,53.4,50.7,99,96,89,30.01,29.89,12,1,12,0.08
2013-6-6,56.5,53.6,50.2,53.1,51.6,49.4,98,93,85,29.98,29.89,7,0,7,0.01
2013-6-7,63.5,57.1,52.8,54.3,51.9,50.1,96,84,63,30.00,29.87,6,0,6,0.01
2013-6-8,71.1,62.7,53.3,56.6,52.9,50.4,93,72,52,29.87,29.83,14,1,14,0.00
2013-6-9,65.5,59.3,55.6,60.9,56.0,51.8,97,89,74,29.85,29.71,23,5,23,0.33
2013-6-10,74.7,64.5,58.4,66.3,60.8,58.1,99,89,65,29.80,29.74,5,0,5,0.00
2013-6-11,75.1,66.0,57.2,67.8,62.2,56.1,99,88,71,29.82,29.74,7,0,7,0.00
2013-6-12,70.4,65.6,62.7,68.2,62.9,53.3,99,91,69,29.84,29.70,14,1,14,0.50
2013-6-13,78.1,67.0,56.0,60.4,54.1,49.6,80,64,45,30.03,29.84,12,0,12,0.00
2013-6-14,77.6,67.6,57.0,61.9,56.4,50.4,81,68,53,30.03,29.81,18,1,18,0.00
2013-6-15,73.2,65.9,61.3,69.1,64.3,58.1,99,95,72,29.86,29.77,15,0,15,0.68
2013-6-16,82.2,67.2,56.6,64.4,58.4,51.1,100,78,38,29.86,29.77,14,0,14,0.03
2013-6-17,81.2,68.9,59.0,63.7,58.0,53.3,91,70,46,29.94,29.80,14,0,14,0.00
2013-6-18,75.1,65.0,55.3,62.0,54.6,48.9,83,70,51,30.03,29.94,12,1,12,0.00
2013-6-19,83.8,70.9,58.3,65.2,57.7,50.5,85,64,45,30.01,29.89,14,0,14,0.00
2013-6-20,86.1,76.3,67.6,69.9,63.5,58.9,79,65,50,29.94,29.81,21,1,21,0.00
2013-6-21,78.8,70.6,63.7,69.3,65.9,62.8,100,86,63,30.01,29.67,25,2,25,1.47
2013-6-22,79.8,70.3,64.2,71.2,66.8,63.9,100,89,70,29.95,29.76,15,1,15,0.42
2013-6-23,82.4,72.3,67.4,72.1,67.6,63.8,99,86,64,29.82,29.63,16,1,23,0.55
2013-6-24,81.1,71.2,64.2,70.3,65.9,62.7,98,84,65,29.84,29.73,14,0,16,0.00
2013-6-25,83.8,73.6,63.9,72.3,67.3,62.4,97,82,60,29.78,29.64,16,1,16,0.00
2013-6-26,83.6,75.2,71.3,76.7,71.6,65.0,99,89,73,29.73,29.59,11,0,12,0.39
2013-6-27,85.1,74.9,67.1,68.6,63.3,56.2,93,69,43,29.74,29.70,19,1,19,0.00
2013-6-28,77.4,68.6,64.5,65.7,61.6,57.3,97,79,62,29.72,29.68,10,1,18,0.18
2013-6-29,74.9,66.6,61.2,64.0,60.0,52.4,100,81,54,29.91,29.67,13,0,13,0.38
2013-6-30,81.2,68.2,56.6,60.0,53.4,48.5,83,61,37,30.05,29.91,16,0,16,0.00
2013-7-1,83.4,71.2,60.4,63.3,56.3,50.4,84,61,37,30.12,30.05,9,0,9,0.00
2013-7-2,82.8,69.9,56.7,61.1,54.1,48.8,79,59,37,30.09,29.99,15,0,15,0.00
2013-7-8,84.5,74.5,65.5,73.6,68.7,64.9,98,83,61,29.91,29.81,7,0,7,0.00
2013-7-9,80.9,74.6,69.1,75.7,69.8,64.1,99,85,74,29.88,29.70,17,0,17,0.43
2013-7-10,81.1,70.5,61.2,64.4,58.1,54.1,85,66,43,29.98,29.82,16,0,16,0.00
2013-7-11,84.7,72.3,60.5,66.2,59.8,57.1,92,67,41,30.05,29.92,14,0,14,0.00
2013-7-12,87.0,75.6,65.6,67.7,61.2,57.3,79,62,44,29.96,29.85,22,2,22,0.00
2013-7-13,76.7,70.4,62.9,73.7,63.5,56.5,100,80,59,30.02,29.86,18,1,18,0.46
2013-7-14,84.7,74.9,68.6,69.0,65.0,62.1,83,72,52,30.12,30.01,14,1,14,0.00
2013-7-15,88.2,77.4,67.8,72.9,67.1,63.5,87,72,48,30.17,30.08,9,0,12,0.00
2013-7-16,90.7,80.4,73.0,75.8,71.5,69.5,93,75,54,30.14,30.09,7,0,7,0.00
2013-7-17,89.5,80.5,72.5,75.6,71.4,68.7,89,75,57,30.17,30.03,7,0,7,0.00
2013-7-18,92.3,82.3,73.9,75.8,71.4,68.9,88,71,52,30.03,29.68,14,0,14,0.00
2013-7-19,84.5,77.6,69.3,72.4,66.0,59.0,90,69,47,29.80,29.63,15,0,15,0.04
2013-7-20,80.5,71.6,63.7,66.0,60.6,55.6,88,69,49,29.89,29.78,11,0,11,0.01
2013-7-21,79.8,67.6,58.0,67.7,59.7,48.0,98,77,60,29.89,29.75,12,2,12,0.25
2013-7-22,84.9,72.6,64.0,75.0,65.1,55.6,95,79,57,29.77,29.59,14,1,14,0.00
2013-7-23,77.4,66.9,59.6,57.8,54.0,51.1,82,64,44,29.96,29.77,12,0,12,0.00
2013-7-24,77.9,65.5,57.2,60.7,55.7,49.4,83,71,48,30.02,29.92,6,0,6,0.00
2013-7-25,78.1,69.5,60.1,69.9,63.0,57.8,97,81,57,29.93,29.84,12,0,12,0.07
2013-7-26,71.8,64.2,54.1,64.3,56.3,46.1,90,76,62,30.02,29.82,10,0,19,0.00
2013-7-27,59.6,54.8,51.6,53.3,48.8,44.8,90,80,63,30.02,29.89,20,1,20,0.08
2013-7-28,71.6,59.7,50.8,56.7,50.7,46.3,88,73,52,30.01,29.91,10,0,10,0.00
2013-7-29,78.8,65.0,52.8,59.5,54.6,50.2,94,71,44,30.08,30.01,12,0,12,0.00
2013-7-30,72.0,66.5,62.9,65.0,60.7,56.1,92,82,73,30.05,29.99,9,0,9,0.01
2013-7-31,79.6,67.3,60.9,69.4,61.2,51.4,99,82,56,30.01,29.91,17,0,17,0.03
2013-8-1,81.1,66.7,54.5,62.6,55.9,50.6,93,70,40,29.97,29.80,6,0,7,0.00
2013-8-2,77.0,66.5,58.3,58.5,55.1,49.9,90,69,46,29.98,29.79,16,0,16,0.00
2013-8-3,77.6,65.1,54.7,58.6,52.4,48.8,90,65,42,30.13,29.98,10,0,10,0.00
2013-8-4,73.7,63.6,54.4,59.2,53.7,49.2,87,71,52,30.18,29.96,7,0,7,0.00
2013-8-5,75.3,65.9,59.5,67.4,62.7,54.6,99,90,74,29.97,29.73,15,0,15,0.43
2013-8-6,83.0,67.6,57.0,69.7,62.0,55.6,98,84,60,29.78,29.62,18,0,18,0.65
2013-8-7,76.3,65.3,59.3,61.5,57.0,49.5,99,77,42,29.97,29.71,13,0,13,0.01
2013-8-8,76.0,64.8,55.1,63.6,56.7,49.9,92,76,53,30.00,29.92,6,0,6,0.00
2013-8-9,77.0,66.4,58.6,62.1,56.6,50.5,97,73,41,30.06,29.93,13,0,13,0.00
2013-8-10,76.1,66.0,57.5,58.9,54.6,50.0,88,68,43,30.12,30.03,4,0,4,0.00
2013-8-11,80.1,68.4,62.1,66.4,60.5,52.6,92,77,53,30.04,29.93,6,0,6,0.00
2013-8-12,79.8,68.9,60.9,63.8,59.0,53.3,97,73,43,30.01,29.92,14,0,14,0.00
2013-8-13,76.0,63.7,53.9,55.8,50.9,45.4,93,66,38,30.13,30.01,10,0,10,0.00
2013-8-14,75.8,62.7,52.5,61.6,53.2,47.7,93,72,50,30.14,30.05,3,0,8,0.00
2013-8-15,80.1,65.2,54.4,64.1,55.7,49.2,89,72,50,30.08,30.02,5,0,5,0.00
2013-8-16,81.4,67.3,56.9,64.0,56.9,52.4,93,71,45,30.13,30.07,10,0,10,0.00
2013-8-17,82.2,68.0,56.5,62.8,56.7,53.4,92,69,42,30.15,30.05,16,0,16,0.00
2013-8-18,82.2,69.4,58.3,64.0,57.9,53.8,87,69,45,30.08,29.95,15,0,15,0.00
2013-8-19,86.3,72.5,63.1,70.2,63.5,58.3,85,74,55,29.97,29.84,13,0,13,0.00
2013-8-20,89.5,77.2,67.6,73.6,68.2,62.9,87,75,56,29.85,29.78,16,1,16,0.00
2013-8-21,87.2,76.6,70.6,76.5,71.5,68.1,94,85,66,29.92,29.76,14,0,14,0.02
2013-8-22,87.0,73.7,65.3,69.3,56.1,49.9,92,57,30,30.05,29.91,16,1,16,0.01
2013-8-23,88.4,72.3,58.4,66.6,58.5,49.0,80,63,44,30.09,29.97,13,0,13,0.00
2013-8-24,87.6,76.8,68.3,72.5,67.4,61.6,84,73,58,30.02,29.88,21,2,21,0.00
2013-8-25,94.9,82.9,75.4,75.6,71.8,68.6,82,70,50,29.94,29.86,19,0,19,0.00
2013-8-26,95.4,84.0,76.8,76.0,73.5,71.6,85,72,49,29.91,29.75,14,0,14,0.00
2013-8-27,96.1,82.4,75.1,78.4,73.3,70.1,86,75,50,29.83,29.70,9,0,9,0.00
2013-8-28,90.1,78.4,69.4,72.1,69.4,63.2,98,76,43,29.93,29.83,11,1,11,0.00
2013-8-29,92.1,78.8,71.3,79.0,72.2,69.0,99,82,52,29.93,29.77,14,0,14,0.38
2013-8-30,84.0,75.7,68.8,71.6,66.6,61.6,93,75,54,29.84,29.73,13,0,13,0.00
2013-8-31,87.4,72.6,62.4,71.3,65.3,60.9,96,79,52,29.82,29.63,6,0,18,0.04
2013-9-1,73.3,67.8,60.7,65.5,60.5,53.6,94,78,64,29.91,29.66,14,0,14,0.01
2013-9-2,68.3,58.9,54.1,53.9,51.5,49.2,91,77,55,30.03,29.90,13,0,13,0.00
2013-9-3,77.7,61.6,50.2,59.6,54.1,48.5,98,79,45,30.05,29.95,6,0,6,0.00
2013-9-4,87.2,69.9,57.5,68.7,60.4,55.0,97,74,44,30.09,29.96,12,0,12,0.00
2013-9-5,81.1,69.2,57.5,64.2,58.2,51.0,84,69,50,30.16,30.05,11,1,11,0.00
2013-9-6,90.5,76.2,66.9,68.8,65.1,60.4,95,72,38,30.05,29.80,18,0,18,0.00
2013-9-7,93.8,78.6,67.8,71.0,65.5,62.1,91,66,36,29.92,29.77,17,1,20,0.00
2013-9-8,74.6,68.6,62.7,64.0,59.5,54.0,85,73,59,29.98,29.83,16,3,16,0.00
2013-9-9,89.3,76.0,68.1,73.6,68.2,63.4,96,78,56,29.83,29.55,17,1,17,0.00
2013-9-10,79.2,72.4,67.6,71.4,65.5,59.4,92,79,63,29.91,29.67,9,0,9,0.00
2013-9-11,84.9,71.1,61.6,64.5,57.5,48.9,93,65,35,29.97,29.91,16,0,16,0.00
2013-9-12,74.9,63.3,54.2,54.8,49.3,43.1,87,62,39,30.16,29.97,15,0,15,0.00
2013-9-13,71.6,57.5,46.7,49.0,45.0,42.3,93,65,36,30.22,30.05,6,0,6,0.00
2013-9-14,74.6,58.6,48.6,56.0,48.8,43.0,98,72,39,30.05,29.86,11,0,11,0.51
2013-9-15,63.7,57.2,48.6,58.4,53.8,43.4,100,89,73,30.27,29.84,12,0,12,0.28
2013-9-16,67.6,52.7,40.6,44.9,40.3,32.9,95,67,33,30.38,30.22,11,1,11,0.00
2013-9-17,67.9,55.7,46.0,56.7,49.2,41.6,97,80,60,30.22,29.91,21,1,21,0.01
2013-9-18,69.9,65.0,57.5,68.4,63.8,56.7,100,96,88,29.91,29.65,16,1,16,0.05
2013-9-19,74.9,68.9,63.7,69.7,66.6,61.7,98,93,79,29.71,29.59,9,0,12,0.13
2013-9-20,66.1,58.5,50.7,61.7,53.3,48.0,94,83,59,29.87,29.69,18,0,18,0.01
2013-9-21,64.2,52.5,45.8,51.2,46.6,44.4,96,81,56,29.94,29.86,9,0,9,0.01
2013-9-22,69.9,56.5,43.9,54.3,48.4,40.9,93,76,55,29.95,29.83,16,2,16,0.00
2013-9-23,72.3,60.2,51.6,54.1,50.3,47.2,86,71,48,29.92,29.83,15,2,21,0.00
2013-9-24,76.1,61.2,49.6,55.0,50.2,46.7,92,69,43,29.93,29.86,11,0,12,0.00
2013-9-25,73.7,60.4,51.1,55.1,50.9,48.2,93,73,49,29.93,29.83,14,0,14,0.00
2013-9-26,79.9,65.9,55.1,60.6,55.2,49.4,85,70,50,29.89,29.79,15,2,25,0.00
2013-9-27,80.3,71.1,63.4,63.0,59.6,56.1,78,68,50,29.87,29.75,23,2,23,0.00
2013-9-28,69.9,59.6,48.2,63.8,54.9,46.1,98,85,65,29.89,29.57,24,1,24,0.26
2013-9-29,75.3,58.6,45.8,52.9,46.1,42.0,94,67,34,29.93,29.76,16,1,16,0.00
2013-9-30,76.1,65.0,55.9,56.1,49.9,45.8,74,59,45,29.77,29.55,21,1,21,0.00
2013-10-1,75.6,64.4,52.6,53.9,46.2,37.1,77,54,26,29.93,29.54,15,0,15,0.00
2013-10-2,72.8,59.2,44.5,54.8,43.1,37.1,96,59,29,30.00,29.80,19,1,19,0.38
2013-10-3,59.2,57.0,55.4,58.1,56.3,54.3,99,98,94,29.86,29.76,17,1,17,0.24
2013-10-4,57.3,55.9,54.4,56.0,54.7,53.4,99,96,87,29.94,29.79,21,4,23,0.15
2013-10-5,58.6,54.4,44.1,58.6,53.9,43.3,100,98,95,29.86,29.66,28,2,28,0.72
2013-10-6,57.5,46.9,39.9,51.8,45.2,39.4,100,94,76,29.80,29.64,14,0,14,0.05
2013-10-7,65.0,51.4,41.8,54.0,45.0,41.3,100,81,49,29.95,29.78,9,0,9,0.00
2013-10-8,73.9,60.8,48.5,51.4,45.3,41.2,80,59,37,29.94,29.79,22,2,22,0.00
2013-10-9,74.9,62.8,53.8,55.1,49.4,46.1,82,63,43,29.99,29.89,16,1,16,0.00
2013-10-10,76.0,61.4,49.5,53.9,48.1,43.3,79,63,42,29.99,29.85,17,1,17,0.00
2013-10-11,73.3,64.8,56.9,57.8,53.2,50.1,87,67,52,29.85,29.59,28,4,28,0.02
2013-10-12,59.6,50.7,43.9,56.0,44.1,39.1,92,78,61,30.12,29.65,16,0,16,0.00
2013-10-13,60.4,47.2,37.0,44.2,37.4,32.8,96,71,37,30.40,30.12,11,0,11,0.00
2013-10-14,53.5,47.4,40.2,46.6,38.5,34.2,92,72,53,30.38,29.93,25,3,25,0.18
2013-10-15,53.2,48.7,45.8,52.9,48.3,45.4,100,98,90,29.93,29.63,18,2,18,0.64
2013-10-16,49.8,44.1,38.9,45.4,41.5,35.9,99,91,70,29.91,29.75,16,0,16,0.01
2013-10-17,58.3,45.8,37.9,46.0,40.7,36.2,97,83,55,29.85,29.72,12,0,12,0.14
2013-10-18,51.3,42.8,38.8,43.5,37.3,30.6,99,82,48,29.93,29.78,17,0,17,0.06
2013-10-19,44.9,38.7,34.6,40.8,36.3,33.1,97,91,77,29.80,29.65,5,0,5,0.20
2013-10-20,43.8,36.2,31.5,41.6,35.0,30.7,99,95,89,29.83,29.58,17,0,17,0.08
2013-10-21,37.0,33.6,28.8,35.2,26.0,22.9,93,74,62,29.93,29.83,17,0,17,0.00
2013-10-22,39.1,32.8,26.7,32.3,27.9,23.3,93,82,66,30.01,29.92,10,0,10,0.00
2013-10-23,38.8,34.2,31.6,32.2,27.2,20.5,93,76,61,30.07,29.96,18,0,18,0.00
2013-10-24,44.8,36.3,31.8,31.0,27.1,22.1,79,69,56,30.28,30.07,14,0,14,0.00
2013-10-25,54.7,42.5,28.4,41.1,33.7,26.1,92,72,53,30.28,29.73,22,0,22,0.00
2013-10-26,48.0,42.0,35.9,40.6,30.9,27.5,78,65,52,30.05,29.73,22,1,22,0.00
2013-10-27,56.0,41.3,29.7,35.7,30.5,25.6,86,67,41,30.09,29.78,12,0,12,0.00
2013-10-28,42.2,35.7,29.4,29.9,24.3,19.6,78,64,46,30.39,30.09,20,2,20,0.00
2013-10-29,40.8,35.9,29.0,36.0,28.0,20.1,89,73,67,30.39,30.06,12,2,15,0.02
2013-10-30,49.5,44.0,38.8,49.5,43.6,36.1,100,99,90,30.06,29.63,14,1,14,0.09
2013-10-31,49.5,43.0,38.9,49.5,43.0,38.9,100,100,100,29.63,29.34,7,0,7,0.04
2013-11-1,48.6,41.3,34.1,40.6,37.2,29.4,100,86,64,29.81,29.35,13,0,13,0.01
2013-11-2,47.0,38.7,31.8,35.0,30.9,27.5,89,74,53,30.07,29.81,13,0,13,0.00
2013-11-3,52.9,42.9,33.1,35.3,31.0,27.5,82,64,47,30.09,29.88,28,4,28,0.00
2013-11-4,47.1,42.9,32.8,45.3,37.1,31.8,98,81,57,30.11,29.80,26,3,26,0.15
2013-11-5,43.9,35.4,29.3,38.3,32.3,28.6,98,89,67,30.21,29.98,11,0,11,0.05
2013-11-6,36.9,32.8,29.7,33.1,29.5,25.5,97,88,73,30.14,29.97,14,0,14,0.17
2013-11-7,35.0,29.7,25.7,30.1,26.9,23.4,95,89,81,30.21,30.14,6,0,6,0.00
2013-11-8,43.6,34.1,23.5,38.4,27.6,21.5,95,78,56,30.18,29.58,24,3,24,0.00
2013-11-9,43.3,39.9,35.3,39.1,32.2,25.5,86,74,61,30.15,29.59,26,2,26,0.00
2013-11-10,44.6,37.2,29.3,30.7,28.4,24.3,85,70,52,30.30,30.07,18,0,18,0.00
2013-11-11,37.3,24.7,15.2,30.7,13.3,6.9,80,62,45,30.70,30.07,20,2,20,0.00
2013-11-12,27.0,19.2,12.3,12.7,8.8,6.1,79,65,43,30.78,30.46,10,0,10,0.00
2013-11-13,48.3,34.1,18.6,32.6,23.0,12.4,77,64,47,30.46,29.85,21,1,22,0.00
2013-11-14,44.9,37.2,32.5,35.1,31.0,26.8,94,78,67,29.85,29.72,12,0,12,0.00
2013-11-15,53.6,40.6,27.5,39.4,34.1,26.3,97,79,54,29.82,29.61,13,1,13,0.00
2013-11-16,49.8,43.8,40.6,49.8,41.4,33.6,100,92,73,29.61,29.18,11,1,15,0.00
2013-11-17,42.3,38.3,31.2,41.6,35.1,23.6,99,88,74,29.76,29.26,23,2,23,0.00
2013-11-18,33.4,28.7,22.4,24.9,20.1,17.5,81,70,57,30.25,29.76,21,2,21,0.00
2013-11-19,43.3,33.2,20.8,28.5,23.4,16.5,86,69,50,30.25,29.92,27,4,27,0.00
2013-11-20,42.8,39.4,35.0,33.6,28.2,23.3,94,66,48,30.00,29.88,23,3,23,0.00
2013-11-21,36.8,30.7,23.9,36.0,27.7,15.2,97,88,68,30.48,30.00,20,2,20,0.00
2013-11-22,29.8,22.5,13.3,15.8,11.4,3.7,83,63,37,30.60,30.44,21,1,21,0.00
2013-11-23,16.9,11.5,7.0,4.6,1.4,-1.8,77,64,48,30.83,30.60,28,1,28,0.00
2013-11-24,27.3,17.7,6.5,15.2,7.5,0.4,80,64,48,30.72,30.00,30,3,30,0.00
2013-11-25,38.0,32.2,26.3,27.9,22.3,14.7,77,67,59,30.04,29.89,19,1,19,0.00
2013-11-26,29.3,19.9,13.1,19.2,6.8,1.6,68,56,44,30.36,30.03,25,3,25,0.00
2013-11-27,22.4,14.4,8.1,8.6,5.2,2.1,80,67,51,30.37,30.15,11,0,11,0.00
2013-11-29,31.3,29.1,26.9,19.9,17.7,15.2,70,62,53,30.38,30.14,17,2,17,0.00
2013-11-30,39.2,31.3,25.3,26.5,23.1,19.6,84,72,59,30.14,30.00,10,0,12,0.00
2013-12-1,36.0,25.3,20.5,25.6,20.3,16.8,90,81,62,30.17,29.91,2,0,4,0.00
2013-12-2,34.9,30.9,24.2,32.7,28.2,19.8,97,90,81,29.91,29.57,19,2,19,0.00
2013-12-3,33.7,32.5,30.1,33.2,32.1,29.3,99,98,97,29.75,29.56,17,3,17,0.00
2013-12-4,32.2,28.1,15.4,31.7,27.2,11.8,98,96,86,29.74,29.44,15,2,16,0.00
2013-12-5,15.2,6.1,-0.2,11.8,0.8,-6.4,86,78,74,30.35,29.65,7,0,10,0.00
2013-12-6,7.0,-0.9,-6.3,-0.8,-7.3,-13.2,77,74,66,30.67,30.35,5,0,5,0.00
2013-12-7,2.4,-4.6,-10.7,-7.1,-11.9,-17.0,74,70,60,30.77,30.62,5,0,5,0.00
2013-12-8,10.7,5.6,-3.3,5.9,0.3,-9.8,83,78,73,30.62,30.05,11,2,11,0.00
2013-12-9,10.0,0.4,-5.4,5.9,-6.0,-12.6,84,74,64,30.13,29.91,12,1,12,0.00
2013-12-10,9.9,5.3,-0.2,4.5,-1.0,-6.7,84,75,65,30.29,29.79,16,0,16,0.00
2013-12-11,5.0,-3.2,-8.4,-2.6,-11.9,-16.4,70,65,55,30.60,30.29,7,0,13,0.00
2013-12-12,19.1,11.1,-1.0,10.7,4.3,-8.4,80,74,61,30.36,30.15,9,0,9,0.00
2013-12-13,16.1,12.9,10.4,10.0,6.6,4.5,82,75,68,30.28,30.12,16,1,18,0.00
2013-12-14,17.5,10.2,0.5,8.5,4.1,-6.4,80,76,66,30.28,30.07,14,0,14,0.00
2013-12-15,5.2,0.9,-1.2,-6.3,-9.2,-12.0,73,62,48,30.17,30.08,12,0,12,0.00
2013-12-16,20.2,7.5,-1.2,17.8,1.0,-19.7,91,74,36,30.17,29.92,11,0,11,0.00
2013-12-17,28.4,21.3,7.2,25.9,15.1,2.4,92,77,64,30.10,29.88,13,1,17,0.00
2013-12-18,34.0,20.8,6.5,25.3,14.4,1.7,86,76,66,30.06,29.65,18,1,18,0.00
2013-12-20,17.8,17.8,17.7,12.7,12.7,12.3,80,80,80,29.86,29.85,0,0,0,0.00
2013-12-21,24.1,19.7,16.4,16.8,13.8,10.6,82,78,69,29.98,29.83,7,0,7,0.00
2013-12-22,22.2,15.8,8.3,16.7,10.7,3.0,85,80,72,30.21,29.93,12,0,12,0.00
2013-12-23,8.1,1.0,-7.0,3.0,-5.9,-14.0,79,72,62,30.52,30.21,10,0,10,0.00
2013-12-24,9.5,-0.9,-13.0,2.8,-8.6,-20.2,81,70,49,30.51,30.16,18,1,18,0.00
2013-12-25,25.1,14.7,7.2,19.7,9.9,2.4,86,81,73,30.17,30.05,8,0,14,0.00
2013-12-26,23.8,18.6,10.9,19.2,13.9,6.0,88,82,75,30.16,30.07,9,0,9,0.00
2013-12-27,38.3,26.5,14.6,29.6,22.7,11.9,94,86,66,30.16,29.88,11,0,17,0.00
2013-12-28,41.9,30.4,21.1,30.7,26.4,19.4,96,86,62,29.96,29.61,22,1,22,0.00
2013-12-29,23.6,0.6,-13.8,19.1,-9.6,-22.7,83,62,43,30.32,29.94,28,2,28,0.00
2013-12-30,0.0,-6.7,-15.3,-5.7,-13.7,-23.0,76,70,64,30.34,30.25,5,0,5,0.00
2013-12-31,0.9,-5.6,-10.3,-8.4,-13.4,-18.2,76,68,57,30.45,30.23,5,0,5,0.00
2014-1-1,3.5,-2.4,-8.9,-6.9,-11.9,-18.0,66,63,58,30.53,30.44,10,0,10,0.00
2014-1-2,4.5,-3.6,-9.8,-10.2,-15.0,-18.7,67,58,40,30.53,30.41,6,0,6,0.00